Content
SEND FEEDBACK

Daily
Averages
Monthly
Summary
Brazil

TERESINA, PIAUI


Home > South America > Brazil > Piaui
Elevation: 99 meters     Latitude: 05 03S     Longitude: 042 48W

WEATHER
 
SELECT A DAY
Number of Records: 166,781;   Date Range: 6/30/96 - 10/24/14
 
SHARE

PRINT THIS DATA

[ ← Previous Day ]
WEATHER ALMANAC - 3 FEBRUARY, 2013
[ Next Day → ]
[ °F ]   °C
Weather ElementAverageHighLow
Temperature31.1 °C37 °C (4:00 pm)26 °C (4:00 am)
Dewpoint23.3 °C26 °C (9:00 am)19 °C (12:00 pm)
Humidity64.8 %89 % (4:00 am)37 % (3:00 pm)
Barometer1008.8 hPa1012.2 hPa (8:00 am)1005.1 hPa (5:00 pm)
Wind Speed2.3 km/h9.3 km/h (11:00 pm)
Weather ElementAverage
Visibility12.4 km
Wind DirectionESE (127.2 °)

Weather ElementTotal
Precipitation---
Cooling Degree Days13.2 (Base 18.3)
Growing Degree Days21.5 (Base 10)
Averaged from 27 records on 3 February, 2013
WEATHER CONDITIONS BREAKOUT
WIND DIRECTION BREAKOUT
WEATHER BY HOUR - 3 FEBRUARY, 2013
[ °F ]   °C
Local TimeTemperatureDewpointHumidityBarometerVisibilityWind DirectionWind SpeedGust SpeedPrecipitationEventsConditions
1:00 AM27 °C24 °C84 %1009.1 hPaNW (310°)3.7 km/hClear
2:00 AM27 °C24 °C84 %1009.1 hPaWNW (300°)1.9 km/hClear
3:00 AM27.2 °C23.9 °C76 %1009.5 hPa19.3 kmWNW (300°)3.7 km/h
3:00 AM27 °C24 °C84 %1009.1 hPaWNW (300°)3.7 km/hClear
4:00 AM26 °C24 °C89 %1009.1 hPaWNW (300°)3.7 km/hClear
5:00 AM26 °C24 °C89 %1010.2 hPaCalmClear
6:00 AM26 °C24 °C89 %1010.2 hPaCalmClear
7:00 AM27 °C24 °C84 %1011.2 hPa10 kmESE (110°)1.9 km/hScattered Clouds
8:00 AM29 °C25 °C79 %1012.2 hPa10 kmNNW (330°)1.9 km/hScattered Clouds
9:00 AM30.6 °C25.6 °C69 %1011.9 hPa19.3 kmCalmScattered Clouds
9:00 AM31 °C26 °C75 %1012.2 hPa10 kmCalmPartly Cloudy
10:00 AM30 °C25 °C74 %1012.2 hPa10 kmENE (60°)3.7 km/hRainLight Rain
11:00 AM33 °C25 °C63 %1011.2 hPa10 kmCalmScattered Clouds
12:00 PM33 °C19 °C43 %1010.2 hPa10 kmNNE (20°)1.9 km/hMostly Cloudy
1:00 PM34 °C24 °C56 %1009.1 hPa10 kmSSW (200°)1.9 km/hPartly Cloudy
2:00 PM35 °C23 °C49 %1008.1 hPa10 kmEast (100°)3.7 km/hScattered Clouds
3:00 PM35.6 °C22.2 °C37 %1006.8 hPa19.3 kmESE (110°)3.7 km/hPartly Cloudy
3:00 PM36 °C22 °C44 %1007.1 hPa10 kmESE (110°)3.7 km/hScattered Clouds
4:00 PM37 °C21 °C39 %1006.1 hPa10 kmENE (60°)3.7 km/hPartly Cloudy
5:00 PM37 °C20 °C37 %1005.1 hPa10 kmEast (100°)3.7 km/hPartly Cloudy
6:00 PM36 °C21 °C41 %1005.1 hPaSSE (150°)3.7 km/hClear
7:00 PM34 °C22 °C49 %1006.1 hPaCalmClear
8:00 PM32 °C23 °C59 %1006.1 hPaCalmClear
9:00 PM31.1 °C23.3 °C54 %1007.1 hPa19.3 kmCalm
9:00 PM31 °C23 °C62 %1007.1 hPaCalmClear
10:00 PM30 °C24 °C70 %1008.1 hPaCalmClear
11:00 PM30 °C24 °C70 %1008.1 hPaNW (320°)9.3 km/hClear
Hourly data recorded from SBTE, located 0 kilometers away from Teresina, Piaui







STORIES FROM OUR PARTNERS